Location: Haulchin
(50.3172°N, 3.4360°E)
Time: 21:27:17
(UTC+00:00)

Cosmos 2333 Rocket - Pass Details

Date: 14 August 2024
Orbit: 838 x 863 km, 70.8° (Epoch: 09 September)

Event Time Altitude Azimuth Distance (km) Brightness Sun altitude
Exits shadow 02:15:05 - 275° (W) 2,592 4.4 -18.1°
Reaches altitude 10° 02:15:25 10° 277° (W) 2,503 4.4 -18.1°
Maximum altitude 02:19:39 21° 325° (NW) 1,874 4.2 -17.7°
Drops below altitude 10° 02:23:54 10° 12° (NNE) 2,515 5.6 -17.3°
Sets 02:27:03 0° 29° (NNE) 3,455 7.0 -17.0°
